TimeMST,TemperatureF,Dew PointF,Humidity,Sea Level PressureIn,VisibilityMPH,Wind Direction,Wind SpeedMPH,Gust SpeedMPH,PrecipitationIn,Events,Conditions,WindDirDegrees,DateUTC
12:15 AM,12.2,6.8,79,29.97,10.0,East,9.2,-,N/A,,Overcast,100,2013-12-13 07:15:00
12:35 AM,12.2,6.8,79,29.97,10.0,East,10.4,19.6,N/A,,Overcast,90,2013-12-13 07:35:00
12:55 AM,12.2,6.8,79,29.97,10.0,East,12.7,-,N/A,,Overcast,90,2013-12-13 07:55:00
1:15 AM,10.4,6.8,85,29.97,10.0,East,12.7,-,N/A,,Overcast,100,2013-12-13 08:15:00
1:35 AM,10.4,6.8,85,29.98,10.0,East,13.8,-,N/A,,Overcast,90,2013-12-13 08:35:00
1:55 AM,10.4,6.8,85,29.97,10.0,East,16.1,-,N/A,,Overcast,90,2013-12-13 08:55:00
2:15 AM,10.4,5.0,79,29.98,10.0,East,15.0,-,N/A,,Overcast,90,2013-12-13 09:15:00
2:35 AM,8.6,5.0,85,29.97,10.0,East,17.3,-,N/A,,Overcast,90,2013-12-13 09:35:00
2:55 AM,8.6,5.0,85,29.97,10.0,East,17.3,-,N/A,,Overcast,90,2013-12-13 09:55:00
3:15 AM,8.6,3.2,79,29.97,10.0,East,17.3,-,N/A,,Overcast,90,2013-12-13 10:15:00
3:35 AM,6.8,1.4,79,29.98,9.0,East,16.1,-,N/A,,Overcast,90,2013-12-13 10:35:00
3:55 AM,5.0,1.4,85,29.99,9.0,East,12.7,-,N/A,,Overcast,100,2013-12-13 10:55:00
4:15 AM,5.0,-0.4,78,29.99,10.0,East,18.4,-,N/A,,Overcast,90,2013-12-13 11:15:00
4:35 AM,5.0,-0.4,78,29.99,10.0,East,15.0,-,N/A,,Overcast,90,2013-12-13 11:35:00
4:55 AM,3.2,-2.2,78,30.00,10.0,East,17.3,-,N/A,,Overcast,90,2013-12-13 11:55:00
5:15 AM,3.2,-2.2,78,30.00,7.0,East,17.3,-,N/A,,Overcast,90,2013-12-13 12:15:00
5:35 AM,3.2,-2.2,78,30.01,4.0,East,17.3,-,N/A,Snow,Light Snow,80,2013-12-13 12:35:00
5:55 AM,1.4,-4.0,78,30.02,7.0,East,13.8,-,N/A,,Overcast,80,2013-12-13 12:55:00
6:15 AM,1.4,-4.0,78,30.03,4.0,East,13.8,-,N/A,Snow,Light Snow,80,2013-12-13 13:15:00
6:35 AM,1.4,-4.0,78,30.05,7.0,East,13.8,-,N/A,,Overcast,80,2013-12-13 13:35:00
6:55 AM,1.4,-4.0,78,30.05,7.0,East,12.7,-,N/A,,Overcast,90,2013-12-13 13:55:00
7:15 AM,1.4,-5.8,72,30.06,8.0,East,13.8,-,N/A,,Overcast,80,2013-12-13 14:15:00
7:35 AM,1.4,-5.8,72,30.07,3.0,East,13.8,-,N/A,,Haze,90,2013-12-13 14:35:00
7:55 AM,1.4,-5.8,72,30.08,6.0,East,12.7,-,N/A,,Haze,80,2013-12-13 14:55:00
8:15 AM,1.4,-5.8,72,30.08,4.0,East,10.4,16.1,N/A,,Haze,90,2013-12-13 15:15:00
8:35 AM,-0.4,-5.8,78,30.09,3.0,East,15.0,-,N/A,Snow,Light Snow,80,2013-12-13 15:35:00
8:55 AM,-0.4,-5.8,78,30.09,3.0,East,12.7,-,N/A,,Haze,90,2013-12-13 15:55:00
9:15 AM,-0.4,-5.8,78,30.10,3.0,East,11.5,-,N/A,,Haze,90,2013-12-13 16:15:00
9:35 AM,1.4,-5.8,72,30.11,3.0,East,11.5,-,N/A,,Haze,90,2013-12-13 16:35:00
9:55 AM,1.4,-5.8,72,30.11,3.0,East,12.7,-,N/A,,Haze,90,2013-12-13 16:55:00
10:15 AM,-0.4,-7.6,72,30.12,4.0,East,10.4,-,N/A,,Haze,90,2013-12-13 17:15:00
10:35 AM,1.4,-7.6,66,30.12,4.0,East,10.4,-,N/A,,Haze,90,2013-12-13 17:35:00
10:55 AM,1.4,-7.6,66,30.12,5.0,East,11.5,-,N/A,,Haze,90,2013-12-13 17:55:00
11:15 AM,1.4,-7.6,66,30.11,7.0,East,13.8,-,N/A,,Overcast,90,2013-12-13 18:15:00
11:35 AM,1.4,-7.6,66,30.11,5.0,East,10.4,-,N/A,,Haze,90,2013-12-13 18:35:00
11:55 AM,1.4,-7.6,66,30.11,6.0,East,11.5,-,N/A,,Haze,90,2013-12-13 18:55:00
12:15 PM,-0.4,-7.6,72,30.10,6.0,East,11.5,-,N/A,,Haze,90,2013-12-13 19:15:00
12:35 PM,-0.4,-7.6,72,30.10,5.0,ENE,10.4,-,N/A,Snow,Light Snow,70,2013-12-13 19:35:00
12:55 PM,-0.4,-7.6,72,30.11,6.0,East,10.4,-,N/A,,Haze,80,2013-12-13 19:55:00
1:15 PM,1.4,-7.6,66,30.12,7.0,ENE,8.1,-,N/A,,Overcast,70,2013-12-13 20:15:00
1:35 PM,-0.4,-7.6,72,30.13,7.0,ENE,5.8,-,N/A,,Overcast,60,2013-12-13 20:35:00
1:55 PM,-0.4,-7.6,72,30.13,6.0,ENE,8.1,-,N/A,,Haze,70,2013-12-13 20:55:00
2:15 PM,-0.4,-7.6,72,30.13,6.0,East,6.9,-,N/A,Snow,Light Snow,80,2013-12-13 21:15:00
2:35 PM,-0.4,-7.6,72,30.14,6.0,ENE,8.1,-,N/A,,Haze,70,2013-12-13 21:35:00
2:55 PM,-0.4,-9.4,66,30.15,5.0,ENE,9.2,-,N/A,Snow,Light Snow,70,2013-12-13 21:55:00
3:15 PM,-0.4,-7.6,72,30.14,5.0,ENE,11.5,-,N/A,,Haze,70,2013-12-13 22:15:00
3:35 PM,-0.4,-9.4,66,30.14,6.0,East,10.4,-,N/A,,Haze,80,2013-12-13 22:35:00
3:55 PM,-0.4,-9.4,66,30.14,10.0,East,11.5,-,N/A,,Overcast,90,2013-12-13 22:55:00
4:15 PM,-0.4,-9.4,66,30.16,10.0,ENE,6.9,-,N/A,,Overcast,70,2013-12-13 23:15:00
4:35 PM,-0.4,-9.4,66,30.16,10.0,East,9.2,-,N/A,,Overcast,90,2013-12-13 23:35:00
4:55 PM,-0.4,-9.4,66,30.17,10.0,East,6.9,-,N/A,,Overcast,90,2013-12-13 23:55:00
5:15 PM,-2.2,-9.4,71,30.17,10.0,East,6.9,-,N/A,,Overcast,100,2013-12-14 00:15:00
5:35 PM,-2.2,-9.4,71,30.19,10.0,East,4.6,-,N/A,,Overcast,80,2013-12-14 00:35:00
5:55 PM,-2.2,-9.4,71,30.19,10.0,East,6.9,-,N/A,,Overcast,90,2013-12-14 00:55:00
6:15 PM,-2.2,-9.4,71,30.20,10.0,East,5.8,-,N/A,,Overcast,80,2013-12-14 01:15:00
6:35 PM,-2.2,-9.4,71,30.20,6.0,East,4.6,-,N/A,Snow,Light Snow,90,2013-12-14 01:35:00
6:55 PM,-2.2,-9.4,71,30.19,6.0,ESE,5.8,-,N/A,,Haze,110,2013-12-14 01:55:00
7:15 PM,-0.4,-9.4,66,30.20,9.0,East,5.8,-,N/A,,Overcast,90,2013-12-14 02:15:00
7:35 PM,-0.4,-9.4,66,30.20,10.0,East,5.8,-,N/A,,Overcast,90,2013-12-14 02:35:00
7:55 PM,-0.4,-9.4,66,30.20,10.0,ESE,5.8,-,N/A,,Overcast,110,2013-12-14 02:55:00
8:15 PM,-0.4,-9.4,66,30.20,10.0,SE,4.6,-,N/A,,Overcast,130,2013-12-14 03:15:00
8:35 PM,-0.4,-9.4,66,30.20,10.0,ESE,5.8,-,N/A,,Overcast,110,2013-12-14 03:35:00
8:55 PM,-0.4,-7.6,72,30.19,10.0,ESE,4.6,-,N/A,,Overcast,120,2013-12-14 03:55:00
9:15 PM,-0.4,-7.6,72,30.20,10.0,SE,4.6,-,N/A,,Overcast,130,2013-12-14 04:15:00
9:35 PM,-0.4,-9.4,66,30.19,10.0,South,4.6,-,N/A,,Overcast,170,2013-12-14 04:35:00
9:55 PM,-0.4,-9.4,66,30.18,10.0,SSE,6.9,-,N/A,,Overcast,160,2013-12-14 04:55:00
10:15 PM,-2.2,-9.4,71,30.19,10.0,South,5.8,-,N/A,,Overcast,170,2013-12-14 05:15:00
10:35 PM,-2.2,-9.4,71,30.19,10.0,South,4.6,-,N/A,,Overcast,190,2013-12-14 05:35:00
10:55 PM,-4.0,-11.2,71,30.18,10.0,South,5.8,-,N/A,,Mostly Cloudy,180,2013-12-14 05:55:00
11:15 PM,-2.2,-9.4,71,30.20,10.0,Calm,Calm,-,N/A,,Overcast,0,2013-12-14 06:15:00
11:35 PM,-2.2,-9.4,71,30.18,10.0,Calm,Calm,-,N/A,,Overcast,0,2013-12-14 06:35:00
11:55 PM,-2.2,-9.4,71,30.17,10.0,SE,3.5,-,N/A,,Overcast,130,2013-12-14 06:55:00